Weather History for KBFM - January, 2014

Change the Weather History Date:

Wednesday, January 15, 2014

  Actual Average Record
Temperature  
Mean Temperature 45 °F -  
Max Temperature 54 °F 58 °F 72 °F (2007)
Min Temperature 34 °F 39 °F 28 °F (2011)
Degree Days  
Heating Degree Days 20    
Moisture  
Dew Point 28 °F    
Average Humidity 52    
Maximum Humidity 83    
Minimum Humidity 21    
Precipitation  
Precipitation 0.00 in - - ()
Sea Level Pressure  
Sea Level Pressure 30.13 in    
Wind  
Wind Speed 11 mph (NW)    
Max Wind Speed 20 mph    
Max Gust Speed 26 mph    
Visibility 10 miles    
Events      
Averages and records for this station are not official NWS values.
T = Trace of Precipitation, MM = Missing Value Source: NWS Daily Summary

Daily Weather History Graph

Daily Weather History Graph

Search for Another Location

Airport or City:

Trip Planner

Search our weather history database for the weather conditions in past years. The results will help you decide how hot, cold, wet, or windy it might be!

Date:

Astronomy

Jan. 15, 2014 Rise Set
Actual Time 6:50 AM CST 5:13 PM CST
Civil Twilight 6:24 AM CST 5:39 PM CST
Nautical Twilight 5:54 AM CST 6:09 PM CST
Astronomical Twilight 5:25 AM CST 6:38 PM CST
Moon 5:06 PM CST (1/15) 6:09 AM CST (1/15)
Length of Visible Light 11h 15m
Length of Day
10h 23m
Full, 100% of the Moon is Illuminated
Jan 15
Full
Jan 15
Full
Jan 23
Last Quarter
Jan 30
New
Feb 6
First Quarter

Hourly Weather History & Observations

Time (CST) Temp. Windchill Dew Point Humidity Pressure Visibility Wind Dir Wind Speed Gust Speed Precip Events Conditions
12:53 AM 46.0 °F 43.1 °F 39.9 °F 79% 30.07 in 10.0 mi West 5.8 mph - N/A   Clear
1:53 AM 46.0 °F 43.1 °F 41.0 °F 83% 30.06 in 10.0 mi West 5.8 mph - N/A   Clear
2:53 AM 46.0 °F 41.4 °F 39.9 °F 79% 30.06 in 10.0 mi West 9.2 mph - N/A   Clear
3:24 AM 48.0 °F - 37.0 °F 66% 30.06 in 10.0 mi West 8.1 mph - N/A   Clear
3:53 AM 46.9 °F - 36.0 °F 66% 30.06 in 10.0 mi WNW 9.2 mph - N/A   Clear
4:53 AM 45.0 °F 38.9 °F 35.1 °F 68% 30.08 in 10.0 mi NNW 12.7 mph - N/A   Clear
5:53 AM 45.0 °F 37.9 °F 35.1 °F 68% 30.10 in 10.0 mi NNW 16.1 mph - N/A   Clear
6:53 AM 44.1 °F 36.5 °F 35.1 °F 71% 30.12 in 10.0 mi NNW 17.3 mph - N/A   Clear
7:53 AM 46.0 °F 39.0 °F 36.0 °F 68% 30.16 in 10.0 mi NNW 17.3 mph - N/A   Partly Cloudy
8:53 AM 50.0 °F - 36.0 °F 59% 30.16 in 10.0 mi North 17.3 mph 24.2 mph N/A   Mostly Cloudy
9:53 AM 52.0 °F - 36.0 °F 54% 30.18 in 10.0 mi NNW 18.4 mph 23.0 mph N/A   Mostly Cloudy
10:53 AM 51.1 °F - 35.1 °F 54% 30.17 in 10.0 mi NNW 17.3 mph - N/A   Mostly Cloudy
11:53 AM 53.1 °F - 30.0 °F 41% 30.14 in 10.0 mi NNW 18.4 mph 25.3 mph N/A   Partly Cloudy
12:53 PM 54.0 °F - 28.9 °F 38% 30.12 in 10.0 mi NW 17.3 mph 26.5 mph N/A   Partly Cloudy
1:53 PM 54.0 °F - 24.1 °F 31% 30.11 in 10.0 mi NW 19.6 mph - N/A   Partly Cloudy
2:53 PM 54.0 °F - 19.0 °F 25% 30.10 in 10.0 mi NNW 16.1 mph 25.3 mph N/A   Partly Cloudy
3:53 PM 53.1 °F - 14.0 °F 21% 30.12 in 10.0 mi NW 19.6 mph - N/A   Clear
4:53 PM 48.9 °F - 12.9 °F 24% 30.13 in 10.0 mi WNW 10.4 mph 19.6 mph N/A   Clear
5:53 PM 46.9 °F - 14.0 °F 27% 30.14 in 10.0 mi WNW 5.8 mph - N/A   Clear
6:53 PM 44.1 °F 40.1 °F 17.1 °F 34% 30.16 in 10.0 mi WNW 6.9 mph - N/A   Clear
7:53 PM 43.0 °F 38.8 °F 18.0 °F 37% 30.19 in 10.0 mi WNW 6.9 mph - N/A   Clear
8:53 PM 39.0 °F 34.0 °F 21.0 °F 49% 30.21 in 10.0 mi NW 6.9 mph - N/A   Clear
9:53 PM 39.9 °F 32.5 °F 19.0 °F 43% 30.22 in 10.0 mi NNW 12.7 mph - N/A   Clear
10:53 PM 36.0 °F 28.5 °F 19.9 °F 52% 30.22 in 10.0 mi NNW 10.4 mph - N/A   Clear
11:53 PM 34.0 °F 28.0 °F 19.0 °F 54% 30.21 in 10.0 mi NNW 6.9 mph - N/A   Clear